CAPE
985 1044 1256 1281 1238 1186 1264 1283 1226 1172 1094 1425 1769 1764 1984 2076 2280 2324 2297 2331 2178 2016 2032 1995 2035 1710 1555 1619 1723 1706 1749 1838 1929 2074 2071 2016 2014 2428 2339 2262 2141 2551 2218 2660 2759 2716 2566 2460 2540 2676 2751 2975 2861 3083 3274 3261 2963 2689 2954 2842 2701 3106 2774
1175 1134 1337 1398 1285 1269 1234 1204 1178 1119 1069 1346 1739 1767 2044 2200 2338 2458 2430 2459 2362 2172 2115 2076 2201 1948 1645 1675 1784 1856 1814 1854 1952 2136 2151 2153 2155 2260 2524 2430 2260 2251 2705 2395 2744 2954 2844 2758 2556 2630 2907 3092 2987 3044 3210 3082 2867 2723 2685 3278 2781 2942 2780
1054 1040 1158 1249 1299 1312 1332 1240 1144 1104 1061 1338 1707 1823 1995 2329 2438 2625 2575 2585 2564 2337 2224 2118 2178 2154 1840 1728 1802 1942 1903 1898 1972 2044 2178 2166 2195 2139 2554 2637 2407 2271 2470 2807 2668 2945 3032 2942 2712 2572 2931 3094 3101 3060 3204 2945 2799 2914 2722 3116 3025 2786 2646
949 936 1002 1060 1207 1227 1376 1400 1245 1103 1166 1521 1611 1730 1901 2318 2531 2740 2785 2748 2691 2523 2374 2226 2128 2210 2084 1861 1799 1908 1961 1936 1978 2033 2114 2148 2167 2076 2199 2850 2760 2558 2473 2766 2957 2853 3078 3011 2804 2640 3096 3064 3122 3134 3156 3132 2793 2967 2910 2900 3201 2970 2623
694 836 904 856 886 1007 1262 1467 1433 1323 1336 1566 1742 1750 1836 2328 2546 2782 2960 2980 2869 2700 2560 2440 2222 2160 2206 2080 1964 1902 1938 1936 1960 2030 2082 2153 2161 2084 1966 2339 3033 2914 2791 2750 2984 3037 2944 3054 2916 2792 2730 2890 3073 3150 3158 3218 3016 2896 3052 3037 3002 3204 2928
597 782 845 877 928 993 1194 1348 1448 1450 1426 1528 1734 1821 1924 2412 2588 2747 3057 3194 3088 2936 2748 2627 2420 2240 2174 2213 2145 2070 1980 1910 1892 1980 2096 2177 2193 2150 2002 2002 2593 3145 3112 2965 2964 3134 3049 2963 2979 2868 2965 2851 2974 3121 3217 3174 3209 2998 2991 3299 3113 3058 3159
647 733 862 944 970 1127 1189 1160 1293 1417 1400 1402 1738 2086 2146 2413 2579 2699 2971 3235 3285 3164 2966 2802 2652 2424 2286 2279 2282 2199 2080 1979 1892 1948 2086 2192 2189 2196 2082 1990 2084 2794 3192 3188 3013 2962 3167 3013 2939 2846 2933 3059 3009 3106 3261 3253 3229 3219 3081 3291 3351 3208 3133
839 701 827 943 979 1142 1346 1297 1230 1188 1286 1360 1734 2456 2386 2442 2612 2684 2853 3079 3325 3342 3195 2982 2798 2616 2514 2464 2400 2285 2172 2064 1962 1965 2097 2234 2234 2221 2180 2022 1976 2137 2702 3203 3209 2880 2794 3022 2910 2877 2707 2950 3114 3112 3288 3352 3261 3303 3296 3279 3350 3341 3292
890 684 730 874 948 1061 1277 1328 1396 1490 1469 1426 1801 2565 2590 2563 2650 2703 2823 2972 3211 3344 3332 3178 2988 2764 2671 2663 2631 2472 2276 2172 2084 2055 2146 2261 2334 2358 2312 2144 1949 1908 2148 2573 3077 3089 2743 2468 2739 2925 2813 2684 2911 3137 3303 3432 3357 3306 3419 3412 3367 3352 3286
603 809 707 736 877 934 1047 1196 1280 1501 1745 1800 2206 2775 2702 2647 2712 2728 2827 2999 3193 3318 3335 3294 3167 2952 2790 2765 2774 2676 2476 2314 2224 2185 2226 2282 2358 2427 2445 2385 2100 1871 1939 2097 2403 2984 2996 2617 2310 2803 3045 2876 2723 2829 3157 3444 3457 3368 3379 3461 3437 3356 3253
400 786 763 692 853 965 1015 1093 1163 1413 1768 2012 2381 2929 2929 2788 2754 2796 2773 2933 3271 3428 3485 3436 3337 3125 2930 2877 2857 2776 2619 2431 2306 2294 2284 2313 2349 2408 2445 2446 2372 2105 1978 2114 2180 2431 2850 2916 2512 2303 2812 3162 3009 2804 2770 3161 3482 3457 3379 3391 3406 3342 3227
423 618 780 762 879 1108 1141 1524 1939 2268 2436 2739 2895 3065 3121 3028 2920 2873 2836 2836 3216 3542 3567 3602 3545 3319 3012 2901 2880 2828 2694 2524 2396 2349 2340 2322 2310 2372 2432 2366 2360 2421 2279 2234 2328 2389 2597 2838 2852 2524 2282 2752 3255 3234 2942 2934 3312 3464 3424 3372 3363 3318 3213
534 393 682 763 840 1100 1299 1855 2526 3044 3099 3131 3174 3240 3303 3226 3108 2999 2903 2875 3051 3628 3823 3776 3691 3532 3210 2899 2802 2761 2710 2586 2487 2403 2369 2340 2247 2203 2294 2327 2245 2373 2542 2448 2392 2416 2530 2687 2818 2861 2542 2358 2669 3305 3450 3240 3247 3404 3428 3381 3368 3346 3259
907 511 352 546 659 1076 1587 1977 2456 3067 3286 3320 3297 3312 3500 3398 3272 3132 2984 2944 3074 3537 3883 3926 3794 3650 3437 3133 2810 2669 2657 2593 2496 2456 2418 2351 2252 2160 2172 2218 2185 2160 2384 2574 2478 2358 2355 2563 2670 2777 2902 2775 2570 2736 3268 3555 3446 3405 3434 3364 3334 3388 3363
734 570 463 1199 648 1071 1478 1851 2299 2997 3359 3432 3369 3390 3626 3582 3438 3280 3139 3056 3171 3427 3867 3997 3912 3756 3569 3359 3063 2723 2620 2570 2476 2411 2445 2528 2438 2370 2344 2320 2248 2169 2236 2456 2448 2339 2221 2223 2577 2667 2744 3035 3037 2862 2940 3320 3553 3498 3469 3438 3305 3280 3392
765 1958 2971 2726 872 1120 1470 1958 2288 2962 3428 3519 3463 3454 3741 3752 3621 3433 3401 3437 3354 3369 3650 3986 4012 3887 3708 3526 3298 2970 2728 2624 2502 2406 2414 2597 2671 2599 2485 2423 2349 2177 2172 2534 2602 2415 2234 2095 2217 2670 2779 2916 3236 3250 3107 3126 3415 3588 3519 3460 3374 3242 3279
1683 2278 2880 3054 2766 3303 3625 3392 3593 3593 3604 3591 3518 3489 3749 3930 3847 3736 3729 3717 3595 3444 3545 3879 4039 3982 3846 3753 3634 3320 2953 2724 2604 2478 2421 2536 2737 2742 2598 2423 2311 2207 2140 2371 2824 2831 2640 2419 2216 2386 2890 2930 3129 3464 3436 3300 3273 3442 3674 3597 3471 3352 3275
1310 2023 2454 3120 3646 4362 4558 4421 4423 4352 3982 3720 3566 3476 3614 3951 3986 3912 3870 3921 3872 3650 3467 3743 3987 4068 4005 3906 3861 3726 3452 3109 2708 2650 2542 2498 2667 2813 2710 2505 2373 2242 2176 2268 2705 3028 2955 2802 2602 2440 2683 3100 3132 3324 3570 3570 3408 3374 3550 3685 3636 3489 3378
838 1062 1744 2318 3043 3921 4353 4483 4354 4417 4323 4117 3864 3551 3456 3748 3966 3965 3893 3938 4026 3893 3744 3665 3813 4016 4061 3992 3930 3944 3766 3500 3138 2906 2763 2674 2662 2776 2809 2645 2434 2350 2318 2358 2523 2955 3187 3111 2969 2802 2583 2847 3359 3362 3475 3627 3630 3570 3523 3602 3664 3626 3465
307 1251 1302 2081 2633 2768 3382 3827 3868 3934 4047 4074 4042 3917 3620 3620 3810 3930 3860 3852 3956 3999 3886 3685 3705 3924 4033 4025 3970 4077 4000 3784 3486 3170 3109 2991 2869 2789 2840 2797 2580 2416 2464 2546 2577 2688 3024 3287 3234 3098 2952 2740 2957 3416 3503 3634 3753 3788 3700 3628 3633 3633 3570
0 1170 1358 1539 1956 2660 2806 3109 3840 4032 4070 4048 3916 3824 3855 3895 3730 3797 3841 3792 3817 3886 3957 3855 3725 3902 4047 4005 3974 4130 4170 4057 3799 3506 3426 3336 3213 3058 2975 2953 2831 2614 2561 2665 2745 2734 2719 2880 3239 3354 3316 3166 2885 2999 3446 3630 3790 3951 3953 3844 3730 3661 3632
3509 2079 2127 4074 4026 3945 3699 3808 4073 4225 3982 3873 3711 3515 3321 3339 3517 3656 3702 3886 3842 3737 3761 3835 3796 3788 4238 4082 3975 4179 4300 4233 4085 3884 3744 3648 3507 3345 3215 3190 3140 2936 2728 2700 2793 2837 2794 2738 2794 3151 3399 3439 3312 3064 3068 3611 3901 4043 4130 4116 4020 3890 3734
3422 3965 4010 4094 4511 4872 4698 4421 4404 4530 4076 3384 2930 2702 3040 3136 3127 3247 3536 3684 4005 3981 3723 3610 3604 3623 4332 4354 4143 4261 4419 4387 4294 4143 4034 3957 3857 3664 3461 3353 3373 3338 3123 2892 2767 2826 2903 2872 2801 2837 3134 3432 3507 3404 3208 3179 3734 4197 4283 4280 4226 4138 3974
3028 2920 2699 2562 2667 3387 4102 3736 3379 3642 3471 3159 3198 3190 4242 4852 4371 3082 3212 3589 3660 4106 4046 3796 3709 3606 3918 4582 4406 4426 4599 4572 4491 4390 4309 4260 4161 4033 3816 3605 3531 3581 3574 3356 3081 2910 2914 2991 3015 3008 3068 3296 3571 3624 3560 3394 3343 3708 4260 4505 4524 4440 4343
2636 2458 2865 3389 3327 4324 4758 4929 5180 4842 4341 3739 3898 4834 5065 3908 5139 4835 4202 3266 3492 3706 4105 4032 3799 3703 3701 4480 4642 4539 4735 4818 4772 4717 4657 4578 4473 4358 4229 4045 3869 3808 3919 3812 3598 3326 3173 3205 3270 3318 3355 3393 3510 3768 3836 3801 3751 3661 3663 3940 4368 4578 4593
2221 2233 2024 3371 3418 3801 4620 4308 4115 4206 4113 4575 5475 5212 5198 5569 5051 4702 4979 4997 3714 3459 3576 3837 3906 3792 3719 4220 4810 4664 4715 4949 5007 5054 5037 4973 4888 4746 4584 4433 4284 4250 4267 4240 4034 3797 3525 3418 3465 3579 3654 3680 3700 3711 3885 4011 4068 4047 3997 3883 3760 3871 4343
2684 2704 2977 3454 3622 3823 3874 3674 3793 4220 3891 4294 4723 4630 4952 5148 4994 4638 4420 4651 4992 3889 3387 3404 3701 3954 3956 4068 4851 4786 4744 4961 5178 5303 5297 5259 5209 5133 4971 4770 4614 4530 4583 4581 4453 4228 3986 3706 3614 3656 3780 3842 3868 3844 3824 3904 4012 4115 4137 4127 4060 3958 3812
2759 2820 2969 3046 3398 3047 3646 3931 3672 4076 3901 4131 4944 4939 4590 3914 4343 4892 4619 4630 4900 4891 4008 3638 4030 4212 4175 4197 4781 4880 4820 4967 5308 5508 5510 5449 5393 5373 5276 5128 4884 4724 4691 4692 4673 4555 4364 4120 3868 3827 3956 4180 4259 4190 4120 4104 4069 4139 4153 4231 4265 4213 4136
2126 2001 2251 2647 2655 2418 3097 4046 3694 3791 3630 3691 4723 4876 4566 4785 4015 4236 4571 4338 4514 5353 4800 4154 4329 4404 4383 4337 4686 4904 4862 4955 5360 5635 5679 5601 5511 5435 5370 5323 5175 4973 4827 4803 4775 4694 4562 4416 4200 3997 3937 4021 4265 4456 4501 4435 4409 4323 4245 4191 4153 4173 4292
2045 2070 2590 2731 2647 2702 2935 3128 3138 3407 3489 3377 3716 4402 4340 4402 5148 4902 5146 5189 5522 5708 5749 5076 4746 4594 4549 4404 4540 4929 4933 5054 5421 5635 5648 5683 5638 5532 5431 5362 5251 5121 4952 4914 4871 4795 4738 4623 4504 4300 4100 4070 4231 4494 4572 4646 4690 4683 4473 4374 4291 4357 4406
1938 1903 2045 2768 2687 2752 2716 2758 2984 3346 3391 3192 3360 4377 4424 4274 4881 5276 5038 4879 5226 5334 5318 5960 5452 4957 4786 4652 4687 5011 5184 5164 5363 5548 5512 5540 5677 5654 5576 5463 5286 5144 5043 5028 4951 4906 4876 4873 4842 4716 4472 4340 4395 4626 4796 4748 5704 4858 4665 4544 4359 4269 4231
1752 2088 2252 2591 2522 2423 2543 2694 2862 3109 3093 3087 3290 4026 4329 4290 4448 4765 4907 4838 4822 4928 5124 5768 5932 5145 5019 4936 4922 4971 5320 5410 5359 5422 5338 5331 5512 5649 5694 5609 5404 5226 5255 5141 5017 5001 5047 5139 5126 5008 4833 4585 4650 4655 4686 4642 4194 4065 3988 3852 3862 3820 3783
1887 1904 2175 2252 2604 2931 2606 2608 2911 2978 2781 2656 3100 3541 4192 4172 4219 4402 4590 4786 4676 4546 4853 5437 5577 5701 5310 5216 5226 5131 5276 5485 5517 5450 5275 5464 5578 5624 5681 5614 5492 5322 5378 5346 5205 5118 5148 5287 5246 5138 5022 4959 4716 4648 4336 4354 4141 4048 3879 3788 3843 3884 3860
1820 1829 2020 2104 2533 2512 2513 2406 2727 2701 2353 2180 2228 2960 3583 3851 3988 4086 4196 4481 4852 5165 4871 5081 5530 5515 5550 5321 5238 5113 5026 5246 6252 5681 5358 5463 5551 5689 5575 5453 5403 5251 5394 5439 5304 5202 5116 5010 5008 4995 5010 4901 4747 4591 4400 4105 3964 3928 3946 3880 3850 3840 3844
1501 1649 1860 2264 2158 2339 2364 2453 2551 2325 2180 2186 2292 2156 2574 3160 3557 3797 3798 4352 4890 5410 5413 5576 5505 5254 5459 5308 5064 4918 5190 4912 5394 5142 5069 5066 5082 5257 5344 5348 5416 5142 5104 5058 5098 4981 4888 4720 4552 4485 4379 4266 4361 4408 4300 4185 4063 3942 3840 3824 3795 3758 3695
1347 1596 1858 2191 2285 2186 2203 2676 2614 2373 2225 2236 2128 2186 2316 2589 3018 3126 3627 4310 4677 4930 4975 5030 5033 5120 5271 5364 5319 5250 5169 5113 4651 4839 4728 4754 4702 4783 5008 4964 5034 5061 4959 4921 4822 4700 4561 4437 4375 4269 4143 3923 3880 3975 4147 4055 3982 3905 3804 3757 3691 3640 3582
1350 1604 1875 2285 2176 2183 2186 2023 2015 2317 2106 1915 2027 1822 1927 2060 2364 2953 3397 4039 4554 4731 4796 4817 4831 4804 4808 4831 4760 4644 4509 4410 4339 4326 4500 4508 4459 4350 4484 4588 4473 4494 4508 4485 4343 4202 4157 4226 4091 3913 3908 3888 3919 3854 3865 3903 3879 3859 3757 3663 3590 3507 3384
1188 1561 2083 2302 2242 2035 1998 1959 2254 2340 2040 1807 1726 1727 2153 2193 2042 2331 2877 3530 4071 4359 4576 4756 4808 4760 4629 4546 4492 4429 4320 4199 4152 4112 4168 4223 4174 4069 3941 4152 4124 3926 3953 4099 4098 4104 4102 4120 4066 3996 4036 4008 3947 3926 3868 3750 3693 3617 3518 3339 3156 3022 2882
Wind_Speed
22 19 18 19 24 23 19 18 20 19 19 19 17 14 13 12 12 12 10 9 6 4 2 2 2 3 5 6 6 5 5 4 5 6 7 7 6 7 8 8 8 7 8 10 10 11 10 11 11 11 12 13 14 13 13 12 12 13 13 15 15 14 14
25 21 18 19 22 20 18 17 17 16 17 19 18 16 13 12 13 12 10 9 7 5 4 2 1 1 3 5 5 6 6 6 6 7 8 8 8 8 9 9 9 8 7 8 10 10 11 11 12 12 12 13 14 14 14 13 13 12 13 14 16 16 16
16 8 9 15 21 21 19 18 17 16 16 17 18 16 12 12 13 13 12 11 8 6 5 3 2 1 1 3 5 5 6 6 6 7 9 10 10 10 9 9 9 8 7 8 9 11 12 13 13 13 13 14 14 15 14 14 13 12 12 12 15 17 17
15 9 13 19 23 23 20 18 17 15 15 17 17 16 14 14 15 15 13 11 9 7 5 4 3 2 3 2 3 5 6 6 7 7 9 10 11 11 10 9 9 9 8 8 8 10 11 13 15 15 15 15 15 16 16 15 14 13 13 12 13 15 17
24 21 21 19 20 20 17 16 16 15 16 18 15 14 15 17 16 15 13 10 8 8 6 6 4 3 3 4 3 3 4 6 7 6 7 8 9 9 10 11 11 11 10 9 9 10 11 12 14 15 16 16 16 16 17 16 15 15 14 13 12 13 15
27 25 20 17 17 17 14 14 15 15 17 19 18 16 16 17 15 13 12 10 7 6 6 5 4 3 3 4 4 3 2 3 4 5 6 7 7 7 8 9 11 12 12 12 11 11 12 13 13 15 17 17 17 17 17 17 17 16 15 14 13 12 13
26 22 17 14 15 13 12 13 12 12 16 18 18 17 15 15 13 13 12 10 9 9 8 7 7 5 4 4 4 5 5 5 4 5 5 5 5 5 6 7 8 10 12 13 13 14 14 15 16 17 17 18 18 18 17 17 18 17 16 15 14 13 13
26 22 15 12 12 11 11 11 10 11 14 15 16 17 15 13 14 14 11 9 9 8 7 8 6 4 3 2 3 5 5 6 5 6 6 6 6 5 5 6 8 10 12 14 15 16 16 17 17 18 18 18 18 18 18 17 17 18 17 16 15 15 14
25 22 17 11 10 11 11 10 11 13 14 13 14 16 17 14 13 12 11 10 8 8 8 8 7 6 5 4 4 4 5 6 6 7 7 7 6 6 7 8 10 11 13 14 16 17 17 17 17 17 18 17 17 17 17 17 17 17 18 17 17 16 15
26 23 17 12 11 12 11 12 14 14 12 10 10 14 17 15 12 12 11 9 8 8 9 8 7 7 6 5 5 6 6 6 7 8 8 7 7 8 8 10 11 13 14 15 16 16 16 16 16 16 17 18 17 16 16 17 17 17 18 18 18 17 16
22 23 19 17 14 11 14 17 15 13 12 10 10 14 16 16 13 11 10 9 8 7 7 7 7 8 8 8 8 7 7 6 7 7 8 7 7 8 10 11 12 13 14 15 15 15 15 14 16 16 16 16 17 17 17 17 17 17 17 18 19 19 18
20 23 22 21 16 12 13 16 14 12 11 9 9 11 13 14 13 12 11 9 8 8 7 6 7 7 7 7 8 8 8 7 6 7 7 8 8 10 11 12 12 13 13 14 14 14 14 15 15 16 16 15 15 16 17 17 17 17 17 18 19 19 18
17 20 24 22 16 12 14 15 13 10 9 8 8 9 10 11 12 11 10 10 10 9 8 8 7 7 6 7 7 7 7 7 7 7 8 9 10 11 12 13 13 13 14 14 14 14 13 14 15 15 16 16 15 15 16 16 16 16 16 16 17 18 19
16 16 21 22 19 15 13 12 11 9 7 8 8 8 8 9 11 10 10 10 10 10 10 9 9 8 8 7 6 6 7 7 8 8 9 10 11 13 13 13 13 13 13 13 13 13 13 14 15 14 14 15 15 15 14 14 14 14 15 16 16 16 17
18 17 24 25 20 16 12 11 10 9 8 9 10 9 8 9 10 9 8 8 9 10 11 11 11 10 10 9 8 8 7 7 7 8 10 12 13 14 14 13 13 13 13 13 13 12 12 12 13 14 13 13 13 14 13 13 13 12 13 15 16 16 16
25 27 29 26 23 18 13 10 10 9 10 12 13 11 9 10 10 10 10 9 9 10 10 12 12 12 11 11 10 8 8 8 9 10 11 13 14 14 14 14 14 13 13 13 13 13 12 12 12 12 13 13 13 13 12 11 10 12 18 17 15 15 14
30 31 32 29 26 22 16 14 13 12 13 15 16 14 12 11 11 10 9 8 9 9 9 10 11 11 12 12 11 12 11 11 10 11 12 12 13 15 15 15 15 14 12 12 13 14 13 12 12 11 12 14 13 13 11 10 9 16 17 19 20 16 14
26 26 29 30 30 27 23 19 17 16 15 17 18 16 15 15 13 11 9 8 8 9 9 8 8 10 11 11 12 14 14 13 13 13 12 12 13 15 15 16 15 14 12 12 13 13 13 13 12 10 11 12 13 12 11 10 14 18 19 20 20 19 15
27 25 27 30 29 27 26 23 20 19 19 21 20 17 15 17 16 13 11 11 10 10 9 7 7 9 11 12 14 16 16 16 16 16 14 13 13 14 16 16 15 14 13 12 12 13 13 13 12 11 11 12 13 12 12 12 16 19 21 21 22 22 19
31 31 32 32 31 29 27 27 25 24 22 20 18 17 18 18 17 15 15 15 14 12 10 10 9 10 12 14 16 18 19 19 18 17 17 15 14 14 15 15 13 12 13 13 13 12 11 12 12 12 12 12 12 13 13 13 16 21 22 22 23 23 21
nan 32 32 34 35 34 33 31 31 30 28 25 23 23 23 21 20 21 19 19 17 15 14 13 12 12 14 15 17 19 21 22 20 19 18 17 16 15 13 12 11 11 12 13 13 12 11 11 12 12 13 13 12 12 12 11 17 21 22 23 24 25 24
39 36 33 35 37 36 36 36 34 30 28 26 24 22 22 20 21 23 20 21 20 18 16 16 14 14 15 16 17 19 21 23 23 21 19 18 17 15 13 11 11 10 11 11 11 11 11 10 10 11 12 12 12 11 10 10 17 20 22 24 24 26 22
40 40 40 40 38 36 35 37 35 31 29 29 29 28 24 21 20 20 21 21 21 22 20 18 16 16 17 17 18 19 20 22 23 23 21 20 19 16 14 13 11 11 12 10 9 10 11 11 11 11 12 12 12 11 9 9 14 20 21 22 24 24 20
40 40 39 38 34 33 33 32 31 30 31 31 29 27 27 27 23 21 22 21 23 25 23 21 18 19 21 20 19 20 20 21 22 24 24 23 20 17 16 15 14 13 14 10 8 7 9 10 10 11 11 11 11 11 10 10 13 19 20 23 26 26 22
41 41 38 36 33 31 28 28 26 25 26 28 27 25 26 25 26 26 23 22 24 26 24 22 21 23 23 24 23 22 22 22 22 23 24 25 22 18 16 16 16 16 15 11 8 6 8 10 10 10 10 9 8 9 9 8 11 20 22 23 25 24 21
43 41 37 35 34 30 29 27 24 23 24 25 24 23 26 28 28 28 29 28 27 25 23 22 25 27 28 28 27 25 24 23 23 22 23 24 22 16 14 16 17 17 14 12 9 8 8 9 9 9 9 10 9 9 10 11 12 18 23 26 26 27 22
42 40 39 38 36 31 29 28 24 22 23 22 22 23 26 28 29 28 29 29 29 23 21 26 31 31 30 30 29 28 26 25 23 23 23 25 23 18 15 15 15 16 15 12 11 10 9 8 9 9 10 11 11 11 13 14 13 17 25 25 27 29 28
46 45 42 40 40 35 31 30 26 24 26 25 27 28 23 23 24 24 25 26 25 23 25 30 31 31 31 30 30 30 29 28 26 25 25 27 26 22 18 16 15 15 14 14 13 11 10 11 11 10 11 13 14 14 14 15 16 18 24 28 28 31 34
46 46 46 43 42 38 34 32 31 29 27 26 26 23 25 23 19 20 21 23 22 22 24 26 28 29 29 29 29 30 30 30 30 28 27 27 27 25 23 21 18 16 15 14 13 13 12 12 12 12 13 15 16 18 18 18 19 20 25 28 31 33 34
42 46 48 48 45 42 39 36 32 29 28 28 27 27 26 27 21 21 24 24 23 24 24 23 24 24 25 25 27 29 30 32 32 31 30 29 28 27 27 25 22 20 18 17 16 16 14 14 15 15 15 17 18 21 21 23 23 24 27 29 29 31 34
45 45 46 46 46 42 40 38 32 33 33 32 32 31 30 29 29 29 27 24 24 26 23 22 21 21 21 23 26 28 29 31 32 32 32 32 31 30 30 28 27 24 23 22 21 20 18 18 20 19 20 21 23 24 27 29 33 38 36 39 34 33 31
43 43 46 45 44 41 40 40 36 34 33 33 33 32 30 30 30 31 27 24 26 26 26 24 23 20 20 22 25 26 28 28 29 31 32 33 32 32 32 31 29 27 27 26 25 24 24 24 24 24 26 27 28 31 32 36 41 39 38 37 40 38 38
44 42 43 45 43 43 42 40 37 35 35 35 33 32 31 30 30 29 29 30 29 28 29 28 28 26 24 24 25 26 26 27 28 30 31 33 33 33 32 32 31 31 30 28 27 28 29 30 29 30 32 32 33 34 40 43 42 41 41 42 43 43 42
46 44 42 42 43 44 43 42 40 38 38 36 34 33 30 30 30 29 31 31 31 29 30 31 30 29 28 27 27 27 27 28 29 31 33 35 35 34 33 33 33 33 33 31 31 32 31 34 35 35 34 35 37 43 45 45 45 43 45 45 46 46 47
46 45 44 42 42 43 43 42 41 40 39 36 34 33 32 32 32 32 33 33 32 32 34 33 32 32 31 29 29 28 29 29 30 34 36 38 41 41 40 36 37 41 41 38 33 33 36 36 40 42 43 44 44 46 46 46 47 45 44 48 48 50 50
47 46 44 42 42 44 44 42 42 39 38 36 37 36 35 34 34 34 33 33 33 34 36 37 37 37 36 35 34 33 35 35 36 36 37 39 40 43 46 49 52 46 43 42 45 52 50 48 45 46 48 50 46 44 48 48 47 48 51 50 50 52 54
46 47 46 43 44 43 43 44 42 39 38 36 37 36 36 36 35 34 34 34 34 37 36 38 38 38 37 37 37 37 38 38 38 37 39 39 41 43 45 46 50 56 56 52 51 57 59 61 60 58 57 56 53 52 58 57 55 53 51 51 52 53 55
44 44 45 44 42 42 43 43 43 43 40 38 38 38 38 37 36 36 34 35 35 37 36 37 38 38 37 38 38 40 39 39 40 39 40 40 41 43 44 47 49 50 53 55 56 58 60 61 61 61 60 61 58 53 51 55 55 54 54 54 54 55 56
Wind_Direction
297 309 309 294 288 291 300 311 315 317 321 314 296 282 272 266 265 264 260 266 284 284 276 267 297 303 328 306 305 299 302 304 285 285 287 298 299 300 310 310 316 306 308 313 322 331 326 326 330 330 330 329 330 331 339 341 348 356 351 354 358 356 353
300 313 308 294 294 298 301 299 303 310 316 311 297 288 270 272 266 267 267 273 286 292 281 260 262 325 342 316 299 312 318 325 317 295 296 296 297 297 306 312 318 316 301 303 298 302 308 320 323 319 325 324 327 325 329 335 338 344 350 344 350 354 354
303 306 308 310 308 302 299 289 297 310 319 313 303 290 283 276 273 274 268 269 279 282 264 278 270 257 289 303 303 321 328 322 321 324 320 315 317 318 311 315 317 313 307 286 289 290 300 308 312 313 313 318 319 321 322 329 330 334 342 338 339 346 352
294 293 305 311 305 299 295 290 299 309 317 321 316 308 289 270 258 257 260 267 279 283 298 298 303 297 260 269 310 319 332 335 336 334 333 320 321 321 313 308 309 306 304 308 300 302 296 302 310 311 312 311 314 315 317 323 326 327 330 332 330 337 345
293 295 298 297 294 289 281 273 288 305 321 326 322 299 277 260 260 254 257 270 290 316 323 322 305 306 275 295 263 269 331 342 341 336 331 321 319 318 323 318 311 318 324 317 308 310 309 308 310 311 313 311 312 311 315 315 319 322 320 323 327 325 333
285 287 296 302 299 294 287 282 293 310 317 318 312 294 270 267 265 275 274 279 294 306 306 316 331 319 315 313 303 315 323 343 343 336 328 325 321 325 328 320 313 318 318 327 319 314 315 315 315 313 315 314 316 315 314 314 313 317 316 314 319 321 322
288 295 301 303 300 292 287 286 294 308 309 308 298 285 275 268 278 279 273 285 298 314 331 344 352 346 350 323 334 337 345 351 344 337 316 321 326 330 328 314 312 313 315 310 319 314 312 317 320 318 316 316 316 318 316 314 312 310 311 310 312 315 322
290 294 293 299 293 281 281 284 293 292 291 293 301 306 303 285 272 275 284 290 298 311 326 341 346 349 339 314 325 342 339 346 330 323 314 326 327 330 322 319 315 313 307 313 317 317 320 317 317 319 321 317 316 316 316 314 313 310 309 312 311 313 310
279 286 283 288 279 270 273 280 278 285 295 307 320 323 318 295 283 285 289 288 292 312 329 333 340 336 318 318 316 332 324 320 318 316 325 330 317 327 323 319 321 313 318 320 315 318 324 324 320 320 323 323 317 313 312 313 312 309 310 312 314 315 313
271 277 277 280 264 252 257 258 265 271 287 307 310 316 325 317 298 285 284 294 298 321 327 327 324 317 315 313 316 321 316 314 313 324 327 330 313 323 324 319 321 321 324 326 321 321 322 325 328 318 320 325 324 322 317 314 313 312 312 315 315 317 319
276 276 280 276 266 255 245 250 263 275 295 314 321 319 326 325 319 313 310 299 303 309 317 317 310 312 315 315 321 320 319 321 318 325 331 330 313 324 326 325 323 324 331 328 328 325 320 321 325 327 321 324 328 330 330 325 321 320 319 316 316 320 321
288 274 280 285 288 274 260 255 261 269 288 304 316 315 316 321 329 327 318 317 298 299 312 314 298 309 308 310 317 316 327 325 320 331 334 330 323 326 326 326 325 326 330 331 330 323 323 324 322 327 334 333 332 333 335 332 330 329 326 322 319 320 322
269 274 277 290 292 285 261 252 262 267 286 296 301 301 305 314 322 323 321 328 330 320 323 321 319 320 319 319 324 315 328 331 331 327 326 322 319 314 317 323 325 327 329 328 329 326 322 323 326 326 334 343 344 341 339 339 336 332 328 324 321 322 323
272 273 292 284 289 287 275 268 265 267 281 295 291 282 286 302 306 315 322 340 347 343 342 340 343 344 342 339 344 342 343 338 331 327 320 311 310 313 317 318 319 321 318 318 328 328 325 322 328 331 334 342 346 346 341 342 341 336 331 328 326 323 325
275 265 252 256 284 293 293 275 263 276 284 291 288 278 285 291 295 303 316 332 347 349 349 342 346 354 352 350 358 360 344 327 317 310 305 306 308 311 314 314 312 311 312 315 323 321 328 327 327 333 338 339 341 342 343 347 345 336 333 333 335 332 336
259 251 254 265 284 294 305 296 285 282 276 274 285 287 284 286 290 304 310 320 333 341 335 329 341 348 352 354 353 342 330 322 309 302 302 302 306 306 304 301 303 307 313 318 322 323 325 331 334 336 338 338 341 341 342 347 338 345 352 347 339 343 344
240 246 251 257 267 271 272 269 254 246 257 269 282 292 287 283 286 287 298 300 313 323 319 317 326 339 348 351 338 328 322 315 309 301 304 303 296 294 296 296 292 297 308 313 314 321 321 328 342 343 331 339 344 347 346 343 342 356 352 355 357 350 351
240 244 254 255 260 264 267 268 264 260 260 263 272 280 274 274 280 285 297 295 300 305 305 309 317 330 339 339 328 328 329 323 315 312 311 303 301 296 292 285 285 292 303 310 311 310 312 325 341 342 330 332 345 350 348 349 360 356 354 354 357 356 356
223 235 244 249 252 258 264 268 266 262 259 256 263 274 276 275 282 292 293 292 288 283 300 309 302 313 327 329 327 330 330 325 324 322 315 315 309 295 286 288 290 294 300 311 307 299 311 326 330 338 337 333 340 351 356 358 0 355 354 354 356 359 1
230 221 228 238 248 255 256 255 256 255 257 259 260 266 261 261 269 273 275 279 276 284 295 304 297 299 316 320 323 324 325 326 328 326 321 312 306 299 296 295 301 300 296 294 296 305 312 312 326 332 336 339 338 347 356 2 355 352 352 351 352 353 352
nan 248 241 239 238 241 245 248 250 248 245 245 243 243 246 248 250 255 260 267 278 284 289 295 297 289 300 311 313 316 319 322 324 326 320 312 305 301 303 303 298 297 293 295 303 306 304 308 318 329 335 341 343 341 349 351 350 346 349 347 346 346 341
233 236 238 242 245 242 249 251 250 252 249 243 245 247 251 251 252 256 259 262 274 278 283 284 291 289 287 299 303 307 312 315 317 318 317 312 304 301 302 298 294 297 293 291 290 288 289 297 313 325 329 331 335 342 347 336 339 340 342 342 338 334 325
232 237 239 235 235 234 235 244 248 246 248 245 244 244 243 245 255 260 260 264 268 273 276 278 285 291 286 291 293 296 302 307 310 310 313 314 311 304 295 290 287 278 272 278 287 292 298 306 314 313 317 322 325 339 340 322 321 331 333 331 327 313 309
235 235 235 236 237 236 233 232 235 237 242 241 237 239 244 243 247 256 262 265 264 268 271 276 281 281 282 284 284 284 289 296 300 302 306 312 319 308 286 275 268 269 266 274 283 293 297 293 296 301 306 314 321 324 323 317 311 319 324 324 319 313 306
231 234 235 236 239 240 238 234 233 235 238 240 238 233 232 241 247 248 252 256 265 267 269 274 275 274 275 275 275 275 279 285 291 294 298 307 313 307 293 281 271 261 258 262 267 276 272 275 284 289 291 299 301 308 315 296 297 306 309 314 315 315 308
225 226 230 236 235 237 244 244 237 231 230 232 230 229 228 231 240 243 245 246 252 264 271 271 269 265 262 265 269 270 272 275 281 284 289 295 299 299 293 277 267 263 260 257 259 260 260 263 269 281 276 272 275 276 279 277 275 287 304 308 316 325 316
223 225 228 232 232 230 235 234 230 229 225 220 217 223 227 228 228 231 238 241 245 252 260 260 260 261 262 262 264 266 269 268 273 276 277 283 288 286 281 278 273 263 257 255 250 249 250 259 259 262 259 262 267 272 276 279 278 283 301 306 313 324 324
222 223 228 233 232 228 228 230 224 224 223 220 220 217 225 232 231 227 228 232 233 236 241 249 254 256 255 256 255 258 261 263 263 265 265 272 278 277 271 267 268 262 258 251 249 252 258 258 260 261 257 259 266 275 281 284 296 279 295 304 312 319 328
225 223 222 227 232 227 224 230 225 227 227 225 219 217 218 220 230 228 225 223 223 228 243 250 252 254 254 251 249 249 253 254 260 258 255 264 274 276 271 263 262 259 256 256 257 261 265 269 268 267 262 263 269 274 277 279 284 299 291 305 316 322 324
228 226 227 229 229 228 225 229 229 228 233 227 224 216 212 213 220 231 228 225 214 224 237 245 252 255 255 251 247 245 246 249 253 254 253 259 266 270 270 264 259 257 256 257 261 263 266 267 271 271 274 274 272 272 274 275 278 283 291 296 312 315 319
219 224 227 232 232 230 233 230 227 234 230 230 227 224 217 215 222 230 226 218 219 219 227 238 244 251 251 249 247 246 245 246 247 249 251 255 261 265 266 264 261 258 255 257 259 261 263 265 268 274 275 276 275 275 273 274 271 265 262 268 278 283 284
218 220 223 229 232 232 233 233 231 238 236 231 228 225 224 221 224 224 218 217 221 222 224 234 242 246 246 247 248 249 249 249 248 249 251 255 256 260 262 264 262 260 258 258 258 260 262 263 266 269 271 273 274 273 273 268 266 269 271 273 276 282 291
212 216 221 225 229 233 235 235 232 238 239 236 230 228 224 221 223 224 221 220 221 223 232 234 240 243 244 246 248 251 251 253 250 249 250 252 254 257 260 261 261 260 261 262 261 262 261 263 266 266 267 269 271 272 266 265 267 269 271 272 275 279 284
210 209 216 222 229 232 234 234 232 238 239 236 233 229 226 227 226 224 222 222 224 231 236 237 239 243 244 246 247 249 251 253 258 256 249 247 249 254 259 260 260 261 262 263 265 265 264 266 267 269 271 271 267 264 266 266 267 269 271 274 276 279 281
213 211 211 216 225 230 234 235 236 236 238 238 237 233 232 231 229 228 227 225 228 235 239 237 237 239 241 245 246 246 247 253 253 251 252 250 247 244 242 240 247 253 250 245 251 263 269 269 265 265 264 265 268 271 268 268 271 275 277 278 279 281 281
216 213 212 215 222 227 230 235 237 237 237 237 238 237 236 234 233 232 230 230 231 234 241 243 241 240 237 237 239 239 241 242 248 251 252 252 252 251 245 241 241 242 252 253 250 254 258 263 263 267 267 264 260 264 273 275 279 281 279 279 277 277 278
219 216 214 217 222 223 228 234 237 238 239 236 237 238 238 238 237 235 233 233 234 238 240 246 245 243 240 241 242 243 246 248 249 249 250 251 252 251 252 248 241 240 242 247 254 258 258 261 263 264 265 268 268 266 271 277 279 282 282 282 282 282 285
224 221 218 218 224 228 228 229 234 238 238 236 237 237 239 239 238 237 237 237 236 240 242 245 248 246 244 243 244 245 247 250 251 251 251 250 251 254 255 254 254 247 243 245 250 257 263 264 264 265 266 269 272 272 270 275 280 284 285 285 286 287 287